Location: Banios
(43.0451°N, 0.2335°E)
Time: 19:06:49
(UTC+00:00)

A-11 Canister half - Pass Details

Date: 10 December 2021
Orbit: 1516 x 1684 km, 47.2° (Epoch: 23 January)

Event Time Altitude Azimuth Distance (km) Brightness Sun altitude
Exits shadow 02:59:08 15° 154° (SSE) 3,346 10.8 -46.6°
Maximum altitude 03:02:58 19° 125° (SE) 3,087 10.8 -45.9°
Drops below altitude 10° 03:09:09 10° 85° (E) 3,812 11.6 -44.8°
Sets 03:13:26 0° 69° (ENE) 4,832 12.4 -44.0°
